ECHOSTAR 11

Last updated on Thu Oct 30 2025 00:02:48 GMT+0000 (Coordinated Universal Time)

1 33207U 08035A 25302.52950588 -.00000047 00000+0 00000+0 0 9995 2 33207 0.4028 86.6504 0002450 107.9260 284.2054 1.00272503 48902
UTC large
Height (km)
Speed (km/s)
/
Latitude / Longitude
Inclination (degrees)
Orbital Period (minutes)
Azimuth
Elevation
Range (km)
Doppler Factor

Next 0 passes for location: London (51.5072 / 0.1276)

Sorry there are no passes over London.